Regional Weather Roundup
Issued by NWS

Home | Current Version | Previous Version | Graphics & Text | Print | Product List | Glossary On
Versions: 1 2 3 4 5 6 7 8 9 10 11 12 13 14 15 16 17 18 19 20 21 22 23 24 25 26 27 28 29 30 31 32 33 34 35 36 37 38 39 40 41 42 43 44 45 46 47 48 49 50
701
ASUS44 KLIX 242205
RWRLA
LOUISIANA WEATHER ROUNDUP
NATIONAL WEATHER SERVICE NEW ORLEANS LA
400 PM CST MON NOV 24 2014

NOTE: "FAIR" INDICATES FEW OR NO CLOUDS BELOW 12,000 FEET WITH NO
      SIGNIFICANT WEATHER AND/OR OBSTRUCTIONS TO VISIBILITY.
      SKY/WX - SKY CONDITION AND SIGNIFICANT WEATHER.
      TMP - AIR TEMPERATURE.    DP   - DEWPOINT TEMPERATURE.
      RH  - RELATIVE HUMIDITY.  PRES - PRESSURE.
      HX  - HEAT INDEX.         WCI  - WIND CHILL INDEX.

*  THESE STATIONS ARE NOT NWS OR FAA STATIONS AND ARE NOT UNDER
   NWS QUALITY CONTROL.

LAZ040-048-061>063-065-066-069-242300-
SOUTHEAST LOUISIANA

CITY           SKY/WX    TMP DP  RH WIND       PRES   REMARKS
N.O. AUDUBON     N/A     66  50  55 MISG        N/A
N.O. INTL ARPT PTSUNNY   66  47  50 NW13      29.91R
N.O. LAKEFRONT MOSUNNY   63  51  65 NW16      29.91R
N.O. DOWNTOWN* FAIR      66  46  48 N6G17     29.91R
SLIDELL        SUNNY     67  47  48 NW8       29.89S
BATON ROUGE    SUNNY     64  39  39 NW8       29.95R
BOOTHVILLE     PTSUNNY   67  54  63 NW10      29.89R
BELLE CHASSE   PTSUNNY   66  47  50 N10       29.90R
BOGALUSA*        N/A     67  44  42 N12       29.94S
NEW ROADS*     FAIR      61  37  41 NW10      29.97R
GONZALES*      FAIR      66  45  46 N9        29.92S
HAMMOND*       SUNNY     66  43  42 N9        29.95R
HOUMA*         MOSUNNY   66  52  59 NW14      29.90R
PORT FOURCHON* CLEAR     70  55  60 NE9       29.93R

$$

LAZ041-044-053-054-242300-
SOUTHWEST LOUISIANA

CITY           SKY/WX    TMP DP  RH WIND       PRES   REMARKS
LAKE CHARLES   MOSUNNY   63  35  35 N12       29.98S
LAFAYETTE      MOSUNNY   63  38  39 N16       29.96R
PATTERSON      SUNNY     64  45  48 N9        29.94S
SALT POINT       N/A     70  46  42 N7        29.91R
NEW IBERIA     SUNNY     64  42  44 N16       29.96R
CHENAULT AIRPK NOT AVBL

$$

LAZ027-028-242300-
CENTRAL LOUISIANA

CITY           SKY/WX    TMP DP  RH WIND       PRES   REMARKS
FORT POLK      MOSUNNY   61  35  37 NW9       30.01R
ALEXANDRIA INT MOSUNNY   61  34  36 NW10      29.99R
ALEXANDRIA     MOSUNNY   62  34  35 VRB7      30.00R

$$

LAZ001-002-242300-
NORTHWEST LOUISIANA

CITY           SKY/WX    TMP DP  RH WIND       PRES   REMARKS
SHREVEPORT     MOSUNNY   60  29  30 W10       30.01R
BARKSDALE AFB  MOSUNNY   60  24  25 NW9       30.02R
DTN SHREVEPORT MOSUNNY   59  24  26 W7        30.02R

$$

LAZ014-016-242300-
NORTHEAST LOUISIANA

CITY           SKY/WX    TMP DP  RH WIND       PRES   REMARKS
MONROE         SUNNY     61  32  33 W7        30.00R
TALLULAH       SUNNY     60  36  40 VRB5      30.00R

$$




USA.gov is the U.S. government's official web portal to all federal, state and local government web resources and services.